Location: Manhattan
(39.1840°N, 96.5710°W)
Time: 19:50:30
(UTC-06:00)

ISS - Visible Passes

Search period start: 18 December 2018 00:00
Search period end: 28 December 2018 00:00
Orbit: 401 x 408 km, 51.6° (Epoch: 19 December)

Date Brightness Start Highest point End Pass type
(mag) Time Alt. Az. Time Alt. Az. Time Alt. Az.
21 Dec -0.8 07:03:09 10° S 07:05:41 21° SE 07:08:13 10° E visible
22 Dec -0.2 06:12:55 10° SE 06:13:41 11° SE 06:14:29 10° ESE visible
23 Dec -3.0 06:54:20 10° SW 06:57:32 54° SE 07:00:46 10° ENE visible
24 Dec -1.6 06:02:37 10° SSW 06:05:25 26° SE 06:08:14 10° ENE visible
25 Dec -0.8 05:13:02 14° SE 05:13:22 14° SE 05:15:06 10° E visible
25 Dec -3.8 06:46:16 10° WSW 06:49:29 58° NW 06:52:45 10° NE visible
26 Dec -3.7 05:56:52 62° S 05:57:14 71° SE 06:00:31 10° NE visible
27 Dec -0.6 05:07:33 13° ENE 05:07:33 13° ENE 05:08:04 10° ENE visible
27 Dec -2.7 06:40:15 21° WNW 06:41:34 27° NNW 06:44:27 10° NNE visible
